Date,TemperatureHighF,TemperatureAvgF,TemperatureLowF,DewpointHighF,DewpointAvgF,DewpointLowF,HumidityHigh,HumidityAvg,HumidityLow,PressureMaxIn,PressureMinIn,WindSpeedMaxMPH,WindSpeedAvgMPH,GustSpeedMaxMPH,PrecipitationSumIn
2014-1-1,12.8,7.0,-4.2,9.0,2.5,-9.0,92,82,74,30.42,30.11,16,5,20,0.00
2014-1-2,1.2,-3.5,-6.3,-2.0,-7.4,-11.0,87,84,76,30.41,30.00,4,1,6,0.00
2014-1-3,-4.5,-8.4,-15.5,-9.0,-13.4,-20.0,85,79,71,30.43,29.96,13,2,15,0.00
2014-1-4,18.2,2.2,-17.0,9.0,-4.9,-21.0,85,73,53,30.45,30.18,6,1,16,0.00
2014-1-5,32.5,23.0,13.5,29.0,15.5,8.0,97,74,55,30.27,29.87,5,1,7,0.00
2014-1-6,43.0,32.0,17.7,43.0,28.9,10.0,99,89,66,29.85,29.26,22,7,32,0.00
2014-1-7,17.0,5.6,1.2,12.0,-4.3,-10.0,88,64,54,30.05,29.40,24,13,44,0.00
2014-1-8,14.4,7.9,3.0,3.0,0.4,-3.0,82,72,58,30.39,30.06,11,3,19,0.00
2014-1-9,17.6,11.0,7.4,8.0,4.6,2.0,85,76,57,30.59,30.37,22,3,26,0.00
2014-1-10,28.3,18.5,6.1,25.0,14.2,3.0,88,83,77,30.52,30.22,2,0,7,0.00
2014-1-11,48.3,38.0,27.1,48.0,37.2,25.0,99,97,87,30.21,29.13,13,2,20,0.00
2014-1-12,42.9,35.2,31.6,41.0,29.7,24.0,93,80,69,29.88,29.19,21,11,35,0.00
2014-1-13,43.9,35.2,27.6,32.0,26.4,24.0,86,72,47,29.98,29.76,17,2,17,0.00
2014-1-14,38.7,37.3,34.7,38.0,35.5,32.0,99,93,77,29.76,29.64,7,1,12,0.00
2014-1-15,41.8,34.8,29.3,33.0,31.0,28.0,97,87,69,29.91,29.74,9,1,16,0.00
2014-1-16,30.8,26.9,24.8,30.0,25.2,24.0,97,93,88,29.93,29.86,5,1,7,0.00
2014-1-17,34.5,27.3,22.3,27.0,23.6,21.0,97,86,72,29.90,29.83,11,2,18,0.00
2014-1-18,35.1,26.5,17.7,27.0,22.6,16.0,95,86,69,29.87,29.66,5,1,8,0.00
2014-1-19,27.5,24.6,21.9,25.0,20.9,16.0,96,86,76,29.68,29.38,18,5,24,0.00
2014-1-20,26.2,14.1,-3.0,23.0,10.4,-8.0,92,85,78,29.93,29.39,10,3,15,0.00
2014-1-21,1.9,-5.1,-10.9,-8.0,-11.3,-15.0,85,75,62,30.12,29.94,9,1,12,0.00
2014-1-22,2.9,-7.7,-13.9,-8.0,-14.0,-19.0,84,74,60,30.06,29.86,8,2,16,0.00
2014-1-23,7.2,-2.8,-11.7,-4.0,-9.2,-15.0,85,75,60,30.19,29.99,11,2,15,0.00
2014-1-24,10.5,0.7,-8.9,-2.0,-7.6,-13.0,83,69,50,30.26,29.89,12,3,17,0.00
2014-1-25,17.9,13.8,8.1,16.0,8.4,-2.0,93,80,63,29.88,29.27,12,2,23,0.00
2014-1-26,17.0,5.2,-4.5,14.0,-4.3,-14.0,89,65,52,29.77,29.27,20,7,36,0.00
2014-1-27,28.0,15.7,5.9,26.0,5.8,-9.0,94,67,37,29.94,29.41,36,8,46,0.00
2014-1-28,11.0,5.4,0.7,-3.0,-7.9,-13.0,67,55,43,30.21,29.94,19,6,29,0.00
2014-1-29,14.1,7.4,-1.2,0.0,-6.2,-10.0,76,55,39,30.17,29.90,17,5,24,0.00
2014-1-30,24.5,14.9,5.3,9.0,4.9,1.0,83,66,45,30.36,30.01,7,2,18,0.00
2014-1-31,30.4,24.6,17.6,20.0,12.8,5.0,71,61,50,30.14,29.93,16,4,18,0.00